DELTA 1 DEB, 10876

Orbit data source: Space-Track

DELTA 1 DEB, 10876 is space debris in SSO originally from a launch on Thu, 29 Jul 1976 UTC launched from the Air Force Western Test Range (AFWTR). Debris objects in space refer to the collection of defunct objects orbiting the Earth. Examples of debris include non-operational satellites, rocket bodies, and fragments generated from explosions, collisions, or faulty payload assembly.

Loading next visibility...
Identifier
10876, 1976-077DE
Orbit
SSO
Country
Flag of USUS
Related business
Manufacturer
Unknown
Mission
Spacecraft
Bus & Motor
Unknown
Mass
Unknown
Launch date (UTC)
1976-07-29 (50 years ago)
Launch vehicle
Unknown
Launch site
Air Force Western Test Range (AFWTR)
Object type
Payload
Rocket body
Debris
Shape & HBR
Unknown shape, 0.2 m
Radar Cross Section
Medium (>0.1 m² and <1 m²)

Expand to show TLE details & history
Last TLE update: 1 day ago

TLE from 1 day ago
0 DELTA 1 DEB
1 10876U 76077DE  26255.02941535  .00000024  00000-0  47485-3 0  9995
2 10876 102.6062 283.3121 0101385 111.2490 277.3455 12.48808994281936
Epoch: 2026-09-12T00:42Z
TLE epoch observation values (Epoch: 2026-09-12T00:42:21.486Z)
Latitude
26.76246°
Longitude
-84.76564°
Altitude
1,463.033 km
Speed
7.138 km/s
True Right ascension
18h 27m 28s
True Declination
26° 38' 13"
Sunlit
Object was in daylight at epoch
Visualization orbit readout
Latitude
Unknown
Longitude
Unknown
Altitude
Unknown
Speed
Unknown
Apparent Right ascension
Unknown
Apparent Declination
Unknown
Sunlit
N/A
Visualization observer readout
Local Sidereal Time
01:48:44
Azimuth
Unknown
Elevation
Unknown
Doppler factor
Unknown
Orbital elements
Apogee altitude
1,546.619 km
Perigee altitude
1,387.542 km
Semi-major axis
7,845.217 km
Eccentricity
0.01014
Inclination
102.6062°
RAAN
283.3121°
Arg. of periapsis
111.249°
True anomaly
276.19146°
Mean anomaly
277.3455°
Eccentric anomaly
276.76866°
Mean motion
3.12346 °/min
Orbital period
115.26 mins
BSTAR
0.00047485
Loading maneuver chart data...
Computing Atmospheric mass density...
Loading historical data...
Loading historical data...
Loading historical data...
Loading historical data...
Loading historical data...
Loading historical data...
Loading historical data...

Documentation

Showing up to 5 results
|